TimeMDT,TemperatureF,Dew PointF,Humidity,Sea Level PressureIn,VisibilityMPH,Wind Direction,Wind SpeedMPH,Gust SpeedMPH,PrecipitationIn,Events,Conditions,WindDirDegrees,DateUTC
12:15 AM,46.4,33.8,62,30.12,10.0,NNE,10.4,-,N/A,,Overcast,30,2013-05-08 06:15:00
12:35 AM,46.4,33.8,62,30.09,10.0,North,12.7,-,N/A,,Mostly Cloudy,360,2013-05-08 06:35:00
12:55 AM,44.6,35.6,71,30.09,10.0,North,10.4,17.3,N/A,,Partly Cloudy,360,2013-05-08 06:55:00
1:15 AM,44.6,33.8,66,30.10,10.0,North,8.1,-,N/A,,Clear,360,2013-05-08 07:15:00
1:35 AM,42.8,33.8,70,30.10,10.0,North,6.9,-,N/A,,Clear,350,2013-05-08 07:35:00
1:55 AM,41.0,33.8,76,30.10,10.0,North,9.2,-,N/A,,Mostly Cloudy,10,2013-05-08 07:55:00
2:15 AM,42.8,33.8,70,30.09,10.0,North,6.9,-,N/A,,Overcast,10,2013-05-08 08:15:00
2:35 AM,42.8,33.8,70,30.08,10.0,North,9.2,-,N/A,,Mostly Cloudy,360,2013-05-08 08:35:00
2:55 AM,44.6,33.8,66,30.07,10.0,North,5.8,-,N/A,,Overcast,360,2013-05-08 08:55:00
3:15 AM,42.8,32.0,66,30.07,10.0,East,4.6,-,N/A,,Overcast,90,2013-05-08 09:15:00
3:35 AM,41.0,32.0,70,30.08,10.0,South,4.6,-,N/A,,Overcast,190,2013-05-08 09:35:00
3:55 AM,39.2,32.0,75,30.08,10.0,SE,5.8,-,N/A,,Mostly Cloudy,130,2013-05-08 09:55:00
4:15 AM,39.2,30.2,70,30.07,10.0,SE,9.2,-,N/A,,Scattered Clouds,140,2013-05-08 10:15:00
4:35 AM,37.4,30.2,75,30.07,10.0,SE,6.9,-,N/A,,Partly Cloudy,130,2013-05-08 10:35:00
4:55 AM,35.6,28.4,75,30.08,10.0,West,9.2,-,N/A,,Mostly Cloudy,260,2013-05-08 10:55:00
5:15 AM,37.4,30.2,75,30.08,10.0,North,5.8,-,N/A,,Scattered Clouds,350,2013-05-08 11:15:00
5:35 AM,37.4,30.2,75,30.09,10.0,North,8.1,-,N/A,,Clear,10,2013-05-08 11:35:00
5:55 AM,35.6,30.2,81,30.09,10.0,NE,8.1,-,N/A,,Partly Cloudy,40,2013-05-08 11:55:00
6:15 AM,35.6,30.2,81,30.09,10.0,East,5.8,-,N/A,,Partly Cloudy,80,2013-05-08 12:15:00
6:35 AM,33.8,28.4,81,30.11,10.0,South,5.8,-,N/A,,Scattered Clouds,190,2013-05-08 12:35:00
6:55 AM,35.6,30.2,81,30.11,10.0,Calm,Calm,-,N/A,,Partly Cloudy,0,2013-05-08 12:55:00
7:15 AM,39.2,30.2,70,30.12,10.0,ESE,4.6,-,N/A,,Clear,120,2013-05-08 13:15:00
7:35 AM,41.0,32.0,70,30.12,10.0,SSE,5.8,-,N/A,,Clear,150,2013-05-08 13:35:00
7:55 AM,42.8,33.8,70,30.12,10.0,SSE,6.9,-,N/A,,Clear,160,2013-05-08 13:55:00
8:15 AM,46.4,33.8,62,30.12,10.0,SSE,5.8,-,N/A,,Clear,160,2013-05-08 14:15:00
8:35 AM,48.2,35.6,62,30.12,10.0,SSE,5.8,-,N/A,,Clear,150,2013-05-08 14:35:00
8:55 AM,48.2,33.8,58,30.12,10.0,West,3.5,-,N/A,,Clear,270,2013-05-08 14:55:00
9:15 AM,51.8,30.2,44,30.11,10.0,West,10.4,17.3,N/A,,Scattered Clouds,280,2013-05-08 15:15:00
9:35 AM,50.0,30.2,47,30.12,10.0,Calm,Calm,-,N/A,,Scattered Clouds,0,2013-05-08 15:35:00
9:55 AM,53.6,30.2,41,30.11,10.0,West,10.4,-,N/A,,Mostly Cloudy,270,2013-05-08 15:55:00
10:15 AM,53.6,26.6,35,30.11,10.0,West,4.6,-,N/A,,Scattered Clouds,280,2013-05-08 16:15:00
10:35 AM,55.4,28.4,36,30.10,10.0,WSW,9.2,17.3,N/A,,Scattered Clouds,250,2013-05-08 16:35:00
10:55 AM,55.4,24.8,31,30.10,10.0,WSW,10.4,17.3,N/A,,Partly Cloudy,240,2013-05-08 16:55:00
11:15 AM,57.2,24.8,29,30.10,10.0,WSW,12.7,19.6,N/A,,Partly Cloudy,240,2013-05-08 17:15:00
11:35 AM,57.2,24.8,29,30.10,10.0,WSW,11.5,18.4,N/A,,Scattered Clouds,250,2013-05-08 17:35:00
11:55 AM,57.2,23.0,27,30.10,10.0,West,16.1,23.0,N/A,,Mostly Cloudy,280,2013-05-08 17:55:00
12:15 PM,57.2,23.0,27,30.10,10.0,NW,3.5,-,N/A,,Scattered Clouds,310,2013-05-08 18:15:00
12:35 PM,59.0,24.8,27,30.09,10.0,West,13.8,20.7,N/A,,Scattered Clouds,280,2013-05-08 18:35:00
12:55 PM,57.2,23.0,27,30.09,10.0,SSW,8.1,-,N/A,,Mostly Cloudy,210,2013-05-08 18:55:00
1:15 PM,57.2,19.4,23,30.08,10.0,WSW,15.0,21.9,N/A,,Mostly Cloudy,250,2013-05-08 19:15:00
1:35 PM,57.2,19.4,23,30.08,10.0,WNW,11.5,19.6,N/A,,Mostly Cloudy,290,2013-05-08 19:35:00
1:55 PM,59.0,19.4,22,30.08,10.0,WNW,13.8,20.7,N/A,,Mostly Cloudy,300,2013-05-08 19:55:00
2:15 PM,60.8,21.2,22,30.06,10.0,West,20.7,25.3,N/A,,Mostly Cloudy,260,2013-05-08 20:15:00
2:35 PM,62.6,19.4,19,30.07,10.0,WNW,6.9,25.3,N/A,,Partly Cloudy,300,2013-05-08 20:35:00
2:55 PM,62.6,19.4,19,30.06,10.0,West,16.1,29.9,N/A,,Partly Cloudy,270,2013-05-08 20:55:00
3:15 PM,60.8,17.6,19,30.05,10.0,West,16.1,24.2,N/A,,Partly Cloudy,280,2013-05-08 21:15:00
3:35 PM,64.4,17.6,16,30.05,10.0,West,20.7,28.8,N/A,,Scattered Clouds,260,2013-05-08 21:35:00
3:55 PM,60.8,15.8,17,30.04,10.0,West,16.1,25.3,N/A,,Mostly Cloudy,280,2013-05-08 21:55:00
4:15 PM,62.6,17.6,18,30.03,10.0,West,18.4,31.1,N/A,,Scattered Clouds,260,2013-05-08 22:15:00
4:35 PM,62.6,15.8,16,30.03,10.0,West,20.7,29.9,N/A,,Scattered Clouds,260,2013-05-08 22:35:00
4:55 PM,62.6,15.8,16,30.03,10.0,West,18.4,27.6,N/A,,Partly Cloudy,280,2013-05-08 22:55:00
5:15 PM,60.8,14.0,16,30.04,10.0,West,15.0,28.8,N/A,,Partly Cloudy,260,2013-05-08 23:15:00
5:35 PM,60.8,14.0,16,30.03,10.0,WNW,17.3,26.5,N/A,,Clear,290,2013-05-08 23:35:00
5:55 PM,60.8,15.8,17,30.04,10.0,West,17.3,26.5,N/A,,Clear,280,2013-05-08 23:55:00
6:15 PM,60.8,15.8,17,30.04,10.0,West,12.7,24.2,N/A,,Clear,280,2013-05-09 00:15:00
6:35 PM,59.0,15.8,19,30.04,10.0,West,16.1,21.9,N/A,,Clear,280,2013-05-09 00:35:00
6:55 PM,57.2,14.0,18,30.05,10.0,West,13.8,24.2,N/A,,Clear,260,2013-05-09 00:55:00
7:15 PM,57.2,15.8,20,30.06,10.0,West,15.0,-,N/A,,Clear,280,2013-05-09 01:15:00
7:35 PM,55.4,17.6,23,30.06,10.0,West,13.8,-,N/A,,Clear,280,2013-05-09 01:35:00
7:55 PM,53.6,14.0,21,30.08,10.0,WNW,9.2,-,N/A,,Clear,290,2013-05-09 01:55:00
8:15 PM,50.0,14.0,24,30.08,10.0,NW,5.8,-,N/A,,Clear,310,2013-05-09 02:15:00
8:35 PM,46.4,12.2,25,30.09,10.0,NW,8.1,-,N/A,,Clear,310,2013-05-09 02:35:00
8:55 PM,46.4,12.2,25,30.10,10.0,NNW,4.6,-,N/A,,Clear,330,2013-05-09 02:55:00
9:15 PM,42.8,12.2,29,30.11,10.0,NNW,9.2,-,N/A,,Clear,340,2013-05-09 03:15:00
9:35 PM,41.0,12.2,31,30.12,10.0,North,6.9,-,N/A,,Clear,350,2013-05-09 03:35:00
9:55 PM,42.8,14.0,31,30.13,10.0,NNE,9.2,-,N/A,,Clear,20,2013-05-09 03:55:00
10:15 PM,42.8,15.8,34,30.13,10.0,NNE,8.1,-,N/A,,Clear,30,2013-05-09 04:15:00
10:35 PM,42.8,14.0,31,30.13,10.0,North,9.2,-,N/A,,Clear,10,2013-05-09 04:35:00
10:55 PM,42.8,15.8,34,30.13,10.0,North,5.8,-,N/A,,Clear,10,2013-05-09 04:55:00
11:15 PM,39.2,12.2,33,30.13,10.0,NNW,5.8,-,N/A,,Clear,330,2013-05-09 05:15:00
11:35 PM,37.4,12.2,36,30.14,10.0,Calm,Calm,-,N/A,,Clear,0,2013-05-09 05:35:00
11:55 PM,37.4,12.2,36,30.14,10.0,SSW,4.6,-,N/A,,Clear,200,2013-05-09 05:55:00